STARLINK-11235, 60726

Orbit data source: Space-Track

STARLINK-11235, 60726 is a payload satellite owned by SpaceX/Seattle (US) in LEO that was launched on Wed, 28 Aug 2024 UTC via an FALCON 9 launch vehicle from the Air Force Eastern Test Range (AFETR). Payloads include a variety of satellites, spacecraft, and rockets equipped with specific instruments for various scientific and technological missions. These include communications satellites like Starlink; space stations such as the ISS; scientific satellites like the Hubble; Earth observation satellites from companies like Planet Labs, Umbra, and HawkEye 360; GPS; miniature CubeSats for education and research; and military/defense satellites.

Loading next visibility...
STARLINK-11235 details
Identifier
60726, 2024-152G
Orbit
LEO
Last TLE update13 hours ago
Origin
Flag of USSpaceX/Seattle (US)
ManufacturerSpaceX/Seattle
MissionOperational spacecraft
Bus & MotorSTARLINK V2M, Unknown motor
Mass730 kg wet, ~700 kg dry
Launch date (UTC)
2024-08-28 (4 months ago)
Launch vehicle
FALCON 9
Launch site
Air Force Eastern Test Range (AFETR)
Object type
Payload
Rocket body
Debris
Shape & HBRUnknown
Radar Cross SectionLarge (>1 m²)

Expand to show TLE details & history

TLE from 13 hours ago
0 STARLINK-11235
1 60726U 24152G   24356.03073501 -.00003939  00000-0 -27705-4 0  9995
2 60726  53.1591 143.3189 0000734 110.5286 249.5810 15.69687508 19287
Epoch: 2024-12-21T00:44Z
Definitive object data (Epoch: 2024-12-21T00:44:15.504Z)
Latitude-0.0001°
Longitude42.16649°
Altitude360.879 km
Speed7.694 km/s
True Right ascension09h 33m 16s
True Declination0° 00' 00"
Sunlit
Object was in full shadow at TLE epoch
Visualization TLE readout
Latitude-20.15267°
Longitude-124.65666°
Altitude365.442 km
Speed7.69 km/s
Apparent Right ascension23h 29m 21s
Apparent Declination-30° 51' 50"
Sunlit
Object is in daylight
Visualization observer readout
Local Sidereal Time12:52:00
Azimuth68.081° E
Elevation-70.941°
Doppler factor1
Orbital elements
Apogee altitude360.547 km
Perigee altitude359.557 km
Semi-major axis6,738.189 km
Eccentricity0.0000734
Inclination53.1591°
RAAN143.3189°
Arg. of periapsis110.5286°
True anomaly249.57312°
Mean anomaly249.581°
Eccentric anomaly249.57706°
Mean motion3.92399 °/min
BSTAR-0.000027705
Orbital period91.74 mins
Loading maneuver chart data...
Loading historical data...
Loading historical data...
Loading historical data...
Loading historical data...
Loading historical data...
Loading historical data...
Loading historical data...

STARLINK-11235 Visibility forecast

Observer location: undefined°, undefined

Span
Click to sort rows by Start time (UTC) header in descending order
Start Az.
Max El. time (UTC)
Max El. Az.
Max El.
End time (UTC)
End Az.
4 mins2024-12-21 19:34:59.033Z313.373° NW2024-12-21 19:36:59.033Z114.098° SE41.988°2024-12-21 19:38:59.033Z127.753° SE
4 mins2024-12-22 12:03:59.033Z194.516° SSW2024-12-22 12:05:59.033Z110.034° ESE31.179°2024-12-22 12:07:59.033Z65.977° ENE
|